Temp
-8 -8 -8 -8 -8 -8 -8 -8 -8 -8 -8 -8 -8 -8 -8 -7 -8 -7 -7 -7 -8 -8 -8 -8 -8 -8 -8 -8 -8 -8 -8 -8 -8 -8 -8 -9 -9 -9 -10 -10 -10 -11 -11
-8 -8 -8 -8 -8 -8 -8 -8 -8 -8 -8 -8 -8 -8 -8 -8 -8 -8 -8 -8 -8 -8 -8 -8 -8 -8 -8 -8 -8 -8 -8 -8 -8 -8 -8 -9 -9 -9 -10 -10 -11 -11 -12
-8 -9 -9 -9 -9 -9 -9 -8 -8 -8 -8 -8 -8 -8 -8 -8 -8 -8 -8 -8 -8 -8 -8 -8 -8 -8 -8 -8 -8 -8 -9 -9 -8 -8 -9 -9 -10 -10 -10 -11 -11 -12 -12
-9 -9 -9 -9 -9 -9 -9 -9 -9 -8 -8 -8 -8 -8 -8 -8 -8 -8 -9 -9 -9 -9 -9 -8 -8 -8 -8 -8 -8 -9 -9 -9 -9 -9 -9 -10 -10 -10 -12 -11 -11 -12 -12
-9 -9 -9 -9 -9 -9 -9 -9 -9 -9 -9 -8 -8 -8 -8 -8 -9 -9 -9 -9 -9 -9 -9 -9 -8 -8 -9 -9 -9 -9 -9 -9 -9 -9 -10 -11 -11 -12 -11 -12 -12 -12 -13
-8 -9 -9 -9 -9 -9 -9 -9 -9 -9 -9 -9 -9 -9 -9 -9 -9 -9 -9 -9 -9 -9 -9 -9 -9 -9 -9 -9 -9 -9 -9 -9 -9 -9 -10 -11 -11 -11 -11 -11 -12 -12 -12
-9 -9 -9 -9 -9 -9 -9 -9 -9 -9 -9 -9 -9 -9 -9 -9 -9 -9 -9 -9 -9 -9 -9 -9 -9 -9 -9 -9 -9 -9 -9 -9 -9 -10 -10 -11 -12 -11 -12 -12 -12 -12 -12
-9 -9 -9 -9 -9 -9 -9 -9 -9 -9 -9 -9 -9 -9 -9 -9 -9 -9 -9 -9 -9 -9 -9 -9 -9 -9 -9 -9 -10 -9 -9 -9 -9 -10 -10 -11 -11 -11 -11 -11 -12 -12 -12
-9 -9 -9 -9 -9 -9 -9 -9 -9 -9 -9 -9 -9 -9 -9 -9 -10 -9 -9 -9 -9 -9 -9 -10 -9 -9 -9 -9 -9 -10 -10 -10 -10 -10 -10 -11 -11 -11 -11 -11 -12 -12 -12
-9 -9 -9 -9 -9 -9 -9 -9 -9 -9 -9 -9 -9 -10 -10 -10 -10 -10 -10 -10 -10 -9 -9 -10 -10 -10 -10 -9 -10 -10 -10 -10 -10 -10 -10 -11 -11 -10 -11 -11 -12 -12 -12
-9 -9 -9 -9 -9 -9 -9 -9 -9 -9 -9 -9 -9 -10 -10 -10 -10 -11 -10 -10 -10 -10 -10 -10 -10 -10 -10 -10 -10 -10 -10 -10 -10 -10 -10 -11 -11 -11 -11 -11 -12 -13 -12
-9 -9 -9 -9 -9 -9 -9 -9 -9 -9 -9 -9 -10 -10 -10 -10 -10 -11 -11 -11 -11 -10 -10 -10 -10 -10 -10 -10 -10 -10 -10 -10 -10 -10 -10 -11 -11 -11 -11 -11 -12 -12 -12
-9 -9 -9 -9 -10 -10 -9 -10 -10 -10 -10 -10 -10 -10 -10 -10 -11 -11 -11 -11 -11 -11 -10 -11 -11 -11 -11 -10 -10 -10 -10 -10 -10 -10 -10 -11 -11 -11 -11 -11 -11 -12 -12
-10 -9 -9 -10 -10 -10 -10 -10 -10 -10 -10 -10 -10 -10 -11 -11 -11 -11 -12 -12 -12 -11 -11 -11 -11 -11 -11 -11 -11 -10 -10 -10 -10 -11 -11 -11 -11 -11 -11 -11 -11 -11 -12
-9 -9 -10 -10 -10 -10 -10 -10 -10 -10 -10 -10 -10 -11 -11 -11 -12 -12 -12 -12 -12 -12 -12 -12 -12 -12 -12 -11 -11 -11 -11 -10 -10 -11 -11 -11 -11 -11 -11 -10 -11 -11 -11
-10 -9 -9 -10 -10 -10 -10 -10 -10 -10 -11 -11 -11 -11 -12 -12 -12 -12 -12 -12 -12 -12 -12 -12 -12 -12 -12 -12 -12 -11 -11 -11 -10 -11 -11 -11 -11 -11 -11 -11 -11 -11 -12
-10 -10 -10 -10 -10 -10 -10 -10 -10 -10 -11 -11 -11 -12 -12 -12 -12 -12 -12 -12 -12 -12 -13 -13 -13 -13 -13 -12 -12 -12 -12 -11 -11 -11 -11 -11 -11 -11 -11 -11 -11 -11 -11
-10 -10 -10 -11 -10 -10 -10 -10 -11 -10 -11 -11 -11 -12 -12 -12 -12 -13 -12 -12 -12 -13 -12 -13 -14 -13 -13 -13 -13 -13 -12 -12 -11 -11 -11 -11 -11 -11 -11 -11 -11 -11 -11
-10 -10 -11 -11 -11 -11 -10 -10 -11 -11 -10 -11 -11 -11 -12 -12 -13 -13 -13 -13 -12 -12 -12 -13 -13 -13 -13 -13 -12 -12 -12 -11 -11 -12 -11 -11 -12 -12 -11 -11 -12 -11 -11
-10 -11 -11 -10 -11 -11 -11 -10 -10 -10 -11 -11 -11 -11 -11 -11 -13 -13 -12 -12 -12 -12 -12 -12 -12 -13 -13 -14 -14 -12 -12 -11 -12 -11 -11 -12 -12 -12 -12 -12 -11 -11 -11
-11 -12 -11 -11 -11 -11 -11 -11 -11 -11 -11 -11 -11 -12 -12 -12 -12 -13 -13 -13 -13 -12 -12 -12 -12 -14 -14 -15 -15 -14 -13 -12 -11 -12 -12 -12 -13 -13 -12 -12 -12 -12 -12
-12 -13 -12 -12 -11 -11 -11 -11 -11 -11 -12 -12 -12 -12 -12 -12 -12 -12 -13 -13 -14 -13 -14 -14 -13 -14 -15 -16 -16 -16 -16 -13 -12 -12 -12 -12 -13 -13 -12 -12 -12 -12 -12
-13 -13 -13 -13 -12 -12 -11 -12 -12 -12 -12 -12 -13 -13 -13 -13 -13 -13 -13 -13 -14 -14 -14 -14 -15 -15 -12 -14 -15 -15 -15 -14 -14 -13 -13 -13 -13 -13 -12 -12 -12 -12 -12
-15 -14 -14 -13 -13 -13 -12 -12 -12 -12 -12 -13 -13 -13 -14 -13 -13 -14 -13 -13 -14 -14 -14 -14 -14 -13 -13 -14 -14 -14 -14 -13 -14 -14 -13 -14 -14 -13 -13 -13 -13 -12 -13
-15 -16 -15 -15 -14 -14 -13 -13 -13 -13 -13 -13 -14 -14 -14 -14 -14 -13 -13 -13 -13 -14 -14 -14 -14 -14 -14 -14 -14 -14 -14 -14 -14 -14 -15 -15 -14 -14 -13 -13 -13 -13 -13
-17 -16 -16 -16 -16 -15 -14 -14 -14 -13 -13 -14 -14 -14 -14 -13 -13 -13 -13 -13 -13 -13 -14 -14 -14 -14 -14 -14 -16 -16 -15 -15 -15 -14 -14 -16 -14 -14 -13 -13 -13 -13 -13
Height
5871 5871 5872 5873 5873 5874 5874 5874 5875 5874 5874 5873 5873 5873 5872 5872 5871 5871 5871 5869 5868 5867 5866 5867 5866 5866 5866 5866 5866 5864 5863 5861 5859 5856 5854 5851 5850 5850 5848 5847 5847 5847 5847
5870 5867 5868 5869 5869 5870 5870 5870 5870 5870 5870 5870 5869 5869 5869 5869 5869 5868 5868 5867 5865 5865 5864 5864 5863 5863 5864 5863 5862 5861 5860 5858 5856 5854 5851 5848 5847 5846 5845 5844 5844 5845 5845
5865 5864 5864 5865 5865 5866 5865 5865 5865 5865 5865 5865 5866 5866 5866 5865 5865 5864 5863 5863 5862 5862 5862 5861 5861 5861 5862 5861 5860 5859 5857 5855 5853 5849 5846 5844 5845 5845 5844 5843 5842 5844 5844
5860 5860 5860 5861 5861 5862 5861 5861 5860 5860 5860 5860 5861 5861 5863 5861 5860 5860 5859 5859 5858 5858 5858 5858 5859 5860 5861 5860 5859 5857 5855 5853 5849 5846 5841 5842 5842 5841 5839 5841 5840 5840 5840
5856 5857 5856 5857 5856 5857 5857 5856 5856 5856 5856 5856 5855 5856 5858 5857 5856 5856 5855 5855 5855 5855 5855 5855 5855 5856 5857 5858 5857 5855 5852 5851 5846 5843 5838 5838 5841 5839 5839 5838 5838 5837 5837
5849 5852 5851 5852 5851 5851 5851 5852 5852 5852 5852 5851 5851 5851 5851 5851 5852 5852 5851 5851 5851 5851 5851 5852 5853 5854 5854 5855 5854 5852 5850 5847 5844 5840 5834 5837 5836 5837 5835 5834 5834 5834 5834
5844 5847 5846 5846 5847 5846 5846 5846 5847 5847 5847 5847 5848 5847 5847 5847 5847 5848 5847 5847 5847 5847 5847 5847 5848 5849 5851 5852 5851 5849 5847 5844 5841 5836 5832 5834 5837 5838 5834 5835 5833 5831 5831
5839 5840 5841 5841 5841 5841 5841 5841 5841 5841 5841 5842 5842 5843 5842 5843 5843 5843 5842 5843 5843 5844 5844 5843 5844 5845 5846 5847 5846 5845 5843 5841 5838 5834 5830 5832 5834 5834 5835 5832 5828 5828 5827
5833 5835 5835 5835 5835 5836 5835 5835 5835 5835 5835 5836 5836 5837 5837 5838 5838 5837 5837 5838 5838 5839 5839 5839 5840 5840 5841 5843 5842 5840 5839 5837 5835 5830 5829 5828 5827 5827 5827 5825 5825 5823 5823
5830 5828 5829 5829 5829 5829 5829 5829 5829 5829 5830 5830 5830 5831 5832 5832 5832 5832 5832 5832 5832 5834 5834 5834 5834 5835 5836 5838 5838 5837 5835 5832 5832 5830 5826 5826 5825 5821 5817 5819 5819 5820 5821
5821 5823 5821 5822 5822 5822 5822 5823 5823 5823 5824 5825 5824 5825 5825 5826 5826 5826 5826 5826 5825 5827 5828 5829 5829 5830 5831 5833 5833 5833 5833 5830 5827 5826 5823 5823 5822 5819 5815 5818 5818 5819 5818
5809 5814 5814 5814 5814 5813 5815 5815 5816 5817 5817 5818 5818 5818 5819 5819 5819 5820 5820 5820 5820 5820 5821 5822 5822 5823 5825 5827 5829 5828 5827 5827 5825 5820 5820 5819 5817 5818 5817 5816 5814 5814 5812
5801 5802 5808 5806 5805 5807 5806 5807 5809 5809 5809 5809 5810 5811 5811 5812 5813 5814 5814 5814 5813 5813 5814 5814 5816 5816 5818 5820 5822 5824 5823 5822 5821 5818 5816 5815 5814 5814 5814 5814 5811 5809 5807
5790 5793 5799 5802 5799 5798 5797 5800 5800 5800 5800 5801 5802 5802 5803 5804 5806 5806 5807 5807 5807 5807 5807 5808 5809 5810 5811 5813 5815 5816 5818 5818 5817 5815 5812 5810 5810 5808 5809 5808 5807 5806 5805
5780 5783 5786 5790 5792 5791 5790 5789 5790 5791 5791 5792 5792 5793 5794 5795 5797 5799 5800 5801 5801 5800 5801 5802 5802 5802 5803 5804 5807 5809 5810 5810 5811 5810 5808 5807 5805 5803 5803 5803 5802 5801 5800
5774 5774 5774 5777 5782 5782 5781 5780 5780 5781 5782 5782 5784 5783 5786 5786 5788 5789 5791 5793 5794 5794 5793 5793 5793 5794 5794 5795 5797 5800 5801 5802 5803 5803 5802 5801 5800 5799 5799 5799 5797 5796 5795
5765 5767 5765 5766 5767 5769 5770 5771 5771 5770 5770 5772 5774 5775 5776 5776 5776 5780 5782 5782 5785 5786 5785 5784 5784 5785 5787 5788 5787 5789 5791 5793 5793 5794 5795 5795 5795 5793 5792 5794 5793 5793 5791
5751 5756 5757 5756 5757 5757 5759 5760 5760 5760 5760 5762 5764 5764 5765 5768 5768 5770 5771 5772 5773 5775 5776 5775 5775 5776 5776 5777 5778 5779 5781 5783 5784 5785 5786 5788 5788 5787 5785 5786 5787 5788 5786
5741 5744 5745 5745 5746 5746 5746 5748 5750 5750 5750 5751 5753 5755 5755 5756 5758 5759 5759 5761 5762 5764 5764 5765 5765 5766 5766 5767 5769 5768 5770 5772 5775 5776 5776 5778 5780 5780 5778 5778 5779 5780 5781
5730 5732 5732 5732 5733 5734 5736 5736 5738 5740 5741 5742 5743 5745 5745 5746 5746 5748 5750 5750 5752 5753 5754 5755 5756 5754 5754 5756 5755 5757 5759 5761 5763 5764 5767 5769 5770 5771 5771 5770 5771 5773 5774
5716 5718 5719 5721 5721 5723 5725 5726 5727 5729 5731 5732 5734 5734 5735 5735 5736 5739 5740 5739 5738 5740 5742 5742 5741 5740 5740 5743 5745 5745 5749 5750 5753 5755 5757 5759 5761 5761 5762 5764 5763 5766 5766
5704 5705 5707 5708 5709 5711 5713 5715 5717 5718 5718 5720 5722 5723 5724 5724 5724 5726 5728 5728 5728 5728 5728 5728 5726 5726 5727 5732 5731 5735 5736 5739 5742 5745 5747 5749 5751 5751 5752 5754 5755 5756 5757
5690 5690 5693 5695 5697 5699 5701 5703 5705 5706 5708 5709 5710 5712 5714 5715 5715 5715 5715 5715 5717 5716 5715 5714 5713 5713 5684 5704 5718 5722 5724 5729 5732 5733 5738 5739 5741 5742 5742 5744 5746 5747 5749
5673 5676 5679 5683 5686 5688 5690 5692 5694 5695 5697 5699 5700 5701 5702 5702 5702 5703 5703 5701 5699 5701 5699 5701 5699 5698 5703 5705 5708 5702 5713 5719 5721 5724 5728 5729 5732 5733 5732 5734 5736 5738 5740
5663 5663 5667 5670 5674 5677 5679 5681 5683 5684 5686 5688 5688 5689 5689 5689 5688 5688 5688 5687 5685 5684 5685 5686 5684 5684 5691 5691 5696 5698 5704 5711 5711 5715 5717 5720 5721 5724 5722 5724 5725 5728 5730
5651 5654 5656 5658 5662 5665 5668 5669 5671 5673 5674 5675 5676 5676 5675 5675 5675 5674 5673 5671 5670 5668 5664 5668 5664 5665 5670 5674 5678 5687 5694 5700 5703 5704 5707 5709 5710 5715 5713 5715 5717 5717 5718
Wind_Speed
17 21 20 21 21 22 23 23 22 21 20 20 20 21 20 20 19 17 18 17 17 18 16 15 13 12 11 11 11 11 13 15 16 16 18 19 18 16 18 18 17 16 14
20 24 24 24 25 25 26 26 25 26 25 25 23 23 23 23 22 22 21 20 17 19 17 16 15 15 13 12 12 11 12 14 16 18 20 21 18 16 17 17 16 14 13
18 21 26 26 27 28 28 29 29 29 28 26 24 24 25 25 24 24 23 20 17 17 18 18 17 16 15 14 13 12 12 14 16 18 22 20 17 19 18 16 15 12 15
24 23 25 27 30 31 31 31 32 32 31 30 29 27 25 26 26 26 25 21 18 16 17 18 17 17 17 15 15 14 14 15 17 19 22 18 16 18 19 13 11 14 17
24 24 26 26 27 28 30 32 32 32 32 31 32 31 27 27 27 27 25 22 20 17 16 18 18 18 18 17 16 15 15 16 17 18 20 18 15 17 22 8 9 14 18
25 23 27 27 28 28 29 30 31 31 31 31 31 29 27 27 26 26 24 22 21 19 17 16 17 19 19 18 17 17 16 16 18 20 22 20 17 26 5 8 13 18 15
27 23 26 28 28 29 29 30 30 31 31 31 30 30 28 26 26 25 24 22 20 21 20 19 19 18 18 19 19 18 18 17 18 22 25 19 20 19 21 15 12 12 13
29 26 26 28 29 30 30 30 30 30 31 31 30 29 28 26 26 25 24 22 22 22 22 23 22 20 19 17 18 19 19 19 21 22 25 23 19 14 26 16 19 19 17
34 31 30 30 30 30 31 31 32 31 32 32 32 30 28 27 27 26 27 25 23 25 22 23 23 21 20 19 18 19 20 21 22 23 23 22 21 24 20 21 22 23 19
31 35 32 32 33 32 33 34 34 33 33 33 33 32 30 29 29 28 29 29 25 26 26 24 23 21 20 19 19 21 20 20 22 22 24 21 22 23 14 24 22 22 20
37 35 37 35 35 36 35 35 35 35 35 34 35 34 33 32 31 29 29 31 30 27 27 25 24 23 22 21 19 21 23 22 21 22 23 22 22 21 21 23 25 22 25
44 38 38 38 37 38 36 36 37 37 37 37 37 36 35 34 33 32 30 30 31 31 31 29 26 24 23 22 22 20 22 23 23 21 23 23 23 23 21 24 26 28 25
46 45 38 41 42 39 40 37 37 39 38 39 39 38 37 35 34 33 31 31 33 33 33 33 30 26 25 24 23 22 22 22 22 24 22 23 24 24 23 23 27 28 26
48 49 42 39 43 43 42 39 39 40 40 41 40 40 38 36 35 35 34 33 33 35 35 36 36 33 30 27 24 24 25 25 24 24 25 23 22 25 22 25 28 28 27
47 48 47 43 40 43 42 41 39 40 41 41 40 40 39 39 35 36 34 34 35 36 37 38 39 37 34 32 28 23 26 27 27 27 24 26 22 25 24 25 29 31 26
48 49 50 45 42 44 45 45 44 44 43 43 42 42 41 42 39 39 36 36 37 37 37 40 40 40 38 35 33 29 28 27 28 28 27 26 27 26 26 23 29 30 27
48 47 48 47 47 46 47 46 46 47 45 43 42 41 42 43 44 38 39 39 37 38 38 40 42 42 41 40 37 33 32 31 31 29 29 29 28 29 30 23 27 30 27
50 47 43 43 44 45 46 45 45 46 46 44 43 42 41 43 44 45 43 41 40 40 40 41 42 42 41 43 41 36 35 34 34 33 30 30 31 30 32 29 26 29 29
49 48 45 43 42 45 47 46 44 44 45 44 44 42 43 43 45 48 44 41 42 42 43 43 45 46 46 44 44 43 40 38 37 38 36 35 33 32 34 32 28 27 31
48 49 50 50 46 44 44 44 43 43 43 44 44 44 44 44 44 44 46 44 42 42 43 44 46 50 49 46 47 46 44 43 38 39 41 40 37 33 35 35 31 28 31
50 48 48 49 47 44 42 42 42 42 43 43 43 43 44 43 43 40 40 44 47 46 46 47 49 54 53 47 47 45 45 44 39 42 42 41 40 38 36 34 36 32 31
52 47 48 47 47 46 43 41 40 41 41 41 41 40 40 41 42 42 43 45 47 48 49 51 53 59 59 55 52 47 45 43 43 46 47 44 41 38 36 35 35 33 32
44 43 46 47 47 46 44 42 41 40 40 40 40 39 38 40 43 45 47 50 49 53 55 57 60 67 82 75 58 52 45 43 44 48 47 42 40 39 37 36 36 34 32
42 44 43 45 46 45 43 42 41 41 41 42 40 40 40 43 46 49 51 54 58 57 62 62 64 62 70 56 60 54 47 51 50 49 51 43 42 41 39 37 37 35 33
41 42 42 44 45 44 43 42 42 42 42 41 41 42 44 47 49 50 51 55 61 64 65 66 71 72 66 61 66 47 49 51 47 52 45 42 45 47 40 38 37 34 32
40 41 43 43 43 42 42 41 42 43 43 42 42 42 42 45 48 52 57 62 65 66 64 63 73 72 72 71 71 61 54 49 46 48 49 41 41 46 44 38 35 32 30
Wind_Direction
259 248 251 253 258 261 262 267 271 275 277 280 284 289 295 300 302 310 314 311 296 285 285 288 297 305 315 321 327 327 326 321 320 310 300 295 290 293 291 288 285 279 275
280 263 254 256 260 262 266 271 272 275 279 282 285 287 291 295 302 305 305 303 292 284 278 280 286 294 302 307 312 323 328 326 322 315 303 295 288 288 285 286 280 267 262
271 261 260 259 261 262 266 269 271 273 277 281 284 287 291 295 298 299 300 300 292 284 281 280 282 285 293 300 304 309 316 324 320 312 303 296 302 303 289 282 280 263 260
269 262 263 262 262 264 267 268 271 274 276 279 282 285 292 296 297 299 301 298 292 283 279 279 283 286 288 292 297 302 308 317 318 317 311 311 312 314 280 273 279 259 244
265 263 263 263 266 268 269 270 272 273 276 279 282 285 288 289 295 297 297 295 292 283 278 282 282 279 282 287 290 296 303 306 315 314 312 309 313 323 291 262 294 261 253
266 263 265 261 261 262 265 270 275 277 278 279 281 285 289 291 293 293 291 290 289 285 279 281 285 285 282 280 282 290 294 299 304 309 309 317 301 321 235 280 287 317 258
267 265 265 266 265 264 265 266 270 273 277 278 281 283 284 287 287 284 283 282 282 282 281 283 284 286 285 282 279 282 290 296 299 301 308 313 320 320 321 298 295 335 255
264 263 263 266 266 266 266 266 267 267 270 274 276 277 279 281 281 279 276 274 277 281 280 284 289 286 282 277 275 279 282 291 294 297 302 316 317 327 308 301 298 302 313
268 267 266 263 265 265 265 266 267 268 270 271 273 274 277 278 276 275 274 276 279 284 288 288 287 285 286 281 274 271 275 283 286 293 300 310 320 315 307 309 309 301 294
262 269 267 268 267 265 265 265 265 265 267 270 271 272 274 274 274 272 274 276 278 281 284 289 285 283 285 279 276 273 269 271 282 286 293 302 307 302 284 310 311 296 292
261 262 267 268 268 268 267 265 265 267 270 271 270 271 271 271 272 273 272 276 280 281 281 282 282 283 281 278 276 275 275 275 277 283 282 289 300 305 314 308 303 292 291
262 260 267 267 265 265 264 266 268 269 270 271 271 271 272 272 272 272 273 275 279 280 281 281 278 280 279 279 280 275 271 276 276 278 281 286 291 299 306 307 301 297 294
266 264 258 267 267 265 265 263 266 266 267 269 270 271 271 271 272 272 271 271 274 276 279 282 282 278 278 275 274 275 274 273 275 276 279 282 286 291 303 303 302 299 304
264 266 265 266 268 267 266 265 262 263 263 266 268 268 269 270 270 269 269 268 270 273 275 279 282 280 277 274 271 270 271 274 275 270 276 279 285 286 295 304 302 300 297
263 265 268 268 266 267 266 265 264 263 264 264 264 265 265 269 270 269 268 268 268 270 273 274 277 279 278 275 275 268 267 269 272 269 270 272 280 288 290 299 303 301 294
262 266 269 268 267 268 269 267 266 264 262 264 264 265 263 265 265 267 268 268 266 266 268 270 271 273 272 271 269 268 267 265 266 268 271 271 274 278 282 289 298 299 292
265 264 266 270 272 269 266 266 266 266 264 261 262 261 264 264 265 270 269 266 266 264 262 266 267 267 269 268 268 265 265 265 270 269 267 273 274 273 277 278 289 295 285
269 266 265 267 267 268 268 264 264 263 263 263 264 263 258 259 257 267 266 265 264 261 260 260 260 260 263 264 265 265 264 264 266 272 275 275 274 275 273 276 279 289 286
266 265 266 264 264 266 265 262 261 261 262 263 263 261 262 260 256 261 264 266 266 264 262 258 257 259 259 263 262 262 265 263 266 272 276 276 276 273 272 273 272 284 286
259 260 261 263 264 262 261 261 260 259 260 262 264 265 264 265 262 262 263 267 266 264 262 261 260 259 258 259 259 260 261 260 266 266 275 279 277 271 268 269 272 274 279
258 258 257 259 261 257 257 258 259 260 261 260 261 263 261 262 264 262 266 266 267 266 265 261 256 258 258 257 258 257 256 255 259 264 270 272 272 271 271 265 270 274 274
255 256 257 256 253 251 254 258 259 260 261 262 261 259 258 260 264 266 261 259 260 265 265 263 260 262 260 258 258 256 258 256 260 264 265 268 271 269 268 263 268 272 274
257 252 253 253 253 251 253 256 257 260 262 262 261 260 261 260 261 263 265 263 260 261 260 260 261 265 260 246 251 248 249 255 262 261 263 267 268 266 264 261 264 269 273
251 253 255 256 254 254 255 258 258 260 262 261 260 262 263 264 264 263 263 265 265 262 259 261 261 258 259 263 249 239 244 253 258 263 262 269 271 262 260 260 264 270 272
247 248 253 254 254 255 255 257 260 262 263 262 263 264 263 263 265 266 266 264 267 268 264 260 260 261 259 259 260 252 248 249 253 260 268 271 267 262 254 256 262 272 271
248 249 251 254 254 253 254 256 258 259 260 262 263 262 262 263 266 268 271 272 270 270 268 264 257 255 256 257 256 257 251 253 252 256 262 260 260 259 255 253 259 270 273